STARLINK-34825, 65692

Orbit data source: Space-Track

STARLINK-34825, 65692 is a payload satellite owned by SpaceX/Seattle (US) in LEO that was launched on Sun, 21 Sep 2025 UTC via an FALCON 9 launch vehicle from the Air Force Eastern Test Range (AFETR). Payload-class satellites include a variety of spacecraft equipped with specific instruments for various scientific and technological missions. These include communications satellites like Starlink; space stations such as the ISS; scientific satellites like the Hubble; Earth observation satellites from companies like Planet Labs, Umbra, and HawkEye 360; GPS; miniature CubeSats for education and research; and military/defense satellites.

Loading next visibility...
Identifier
65692, 2025-212S
Orbit
LEO
Country
Flag of USUS
Related business
Manufacturer
SpaceX/Seattle
Mission
Operational Commercial Communications
Bus & Motor
STARLINK V2MO, Unknown motor
Mass
575 kg wet, ~530 kg dry
Launch date (UTC)
2025-09-21 (9 months ago)
Launch vehicle
FALCON 9
Launch site
Air Force Eastern Test Range (AFETR)
Object type
Payload
Rocket body
Debris
Shape & HBR
Box + 2 Pan, 17.7 m
Radar Cross Section
36.964 m², Large (>1 m²)

Expand to show TLE details & history
Last TLE update: 11 hours ago

TLE from 11 hours ago
0 STARLINK-34825
1 65692U 25212S   26171.40445492  .00016674  00000-0  50335-3 0  9992
2 65692  53.1585 228.2929 0001050  74.6912 285.4207 15.34409987 42965
Epoch: 2026-06-20T09:42Z
TLE epoch observation values (Epoch: 2026-06-20T09:42:24.905Z)
Latitude
0.00003°
Longitude
174.06959°
Altitude
463.384 km
Speed
7.636 km/s
True Right ascension
15h 13m 10s
True Declination
0° 00' 00"
Sunlit
Object was in full shadow at epoch
Visualization orbit readout
Latitude
Unknown
Longitude
Unknown
Altitude
Unknown
Speed
Unknown
Apparent Right ascension
Unknown
Apparent Declination
Unknown
Sunlit
N/A
Visualization observer readout
Local Sidereal Time
07:12:42
Azimuth
Unknown
Elevation
Unknown
Doppler factor
Unknown
Orbital elements
Apogee altitude
463.649 km
Perigee altitude
462.212 km
Semi-major axis
6,841.068 km
Eccentricity
0.00011
Inclination
53.1585°
RAAN
228.2929°
Arg. of periapsis
74.6912°
True anomaly
285.4091°
Mean anomaly
285.4207°
Eccentric anomaly
285.4149°
Mean motion
3.83581 °/min
Orbital period
93.85 mins
BSTAR
0.00050335
Loading maneuver chart data...
Computing Atmospheric mass density...
Loading historical data...
Loading historical data...
Loading historical data...
Loading historical data...
Loading historical data...
Loading historical data...
Loading historical data...

Documentation

Showing up to 5 results
|